カタログに戻る

RUNNER-1

TYVAK-1005

運用中科学SSO
NORAD 56953·PAYLOAD·🇺🇸 United States

打ち上げ Jun 12, 2023 から Vandenberg Space Force Base

Loading…

次のパス (今後24時間)

TLE

最新Source: Space-Track

元期: Sep 14, 2026, 08:48 UTC

1 56953U 23084X   26257.36727390  .00008333  00000-0  21602-3 0  9995
2 56953  97.6369  43.0241 0007592   4.9165 355.2153 15.39265883181310

AllMySatでRUNNER-1をリアルタイム追跡

Download on the App Store